Regional Weather Roundup
Issued by NWS

Home | Current Version | Previous Version | Text Only | Print | Product List | Glossary On
Versions: 1 2 3 4 5 6 7 8 9 10 11 12 13 14 15 16 17 18 19 20 21 22 23 24 25 26 27 28 29 30 31 32 33 34 35 36 37 38 39 40 41 42 43 44 45 46 47 48 49 50
000
ASUS43 KBIS 190310
RWRND

NORTH DAKOTA REGIONAL WEATHER ROUNDUP
NATIONAL WEATHER SERVICE BISMARCK ND
1000 PM CDT WED OCT 18 2017

NOTE: "FAIR" INDICATES FEW OR NO CLOUDS BELOW 12,000 FEET WITH NO
SIGNIFICANT WEATHER AND/OR OBSTRUCTIONS TO VISIBILITY.


NDZ001>003-009>011-017-190400-
NORTHWEST NORTH DAKOTA

CITY           SKY/WX    TMP DP  RH WIND       PRES   REMARKS
WILLISTON      CLOUDY    36  25  64 CALM      29.87F
MINOT          CLOUDY    43  24  47 SW8       29.88F
MINOT AFB      CLOUDY    35  21  57 W6        29.87F
$$

NDZ018>021-031>035-040>046-190400-
SOUTHWEST NORTH DAKOTA

CITY           SKY/WX    TMP DP  RH WIND       PRES   REMARKS
BISMARCK       CLOUDY    44  25  47 CALM      29.95F
DICKINSON      CLOUDY    38  25  59 S7        29.90F
GARRISON         N/A     40  24  53 CALM      29.90F
HETTINGER ARPT CLOUDY    41  25  53 SE3       29.95F
$$

NDZ004>008-012>016-024-026-027-054-190400-
NORTHEAST NORTH DAKOTA

CITY           SKY/WX    TMP DP  RH WIND       PRES   REMARKS
GRAND FORKS    PTCLDY    52  23  32 W13       29.88R
GRND FRKS AFB  CLEAR     50  21  32 W18G25    29.87F
DEVILS LAKE    CLOUDY    47  28  47 W9        29.90S
$$

NDZ022-023-025-028>030-036>039-047>053-190400-
SOUTHEAST NORTH DAKOTA

CITY           SKY/WX    TMP DP  RH WIND       PRES   REMARKS
FARGO          CLEAR     45  25  45 SW8       29.94S
JAMESTOWN      CLOUDY    43  25  49 SW7       29.95S
$$





USA.gov is the U.S. government's official web portal to all federal, state and local government web resources and services.